Total_Precipitation_Accumulation
0.02 0.02 0.02 0.02 0.02 0.01 0.01 0.01 0.00 0.00 0.00 0.00 0.00 0.00 0.00 0.00 0.00 0.00 0.00 0.00 0.00 0.00 0.00 0.00 0.00 0.00 0.00 0.00 0.00 0.00 0.00 0.01 0.01 0.01 0.01 0.00 0.01 0.01 0.01 0.00 0.01 0.01 0.00 0.00 0.00 0.00 0.02 0.05 0.06 0.06 0.07 0.09 0.13 0.18 0.22 0.30 0.35 0.29 0.19 0.15 0.20 0.22 0.20 0.19 0.18 0.18 0.23 0.29 0.29 0.25 0.20 0.14 0.10 0.09 0.09 0.10 0.10 0.09 0.08 0.10 0.12 0.10 0.09 0.07 0.07
0.02 0.03 0.03 0.02 0.02 0.01 0.01 0.01 0.00 0.00 0.00 0.00 0.00 0.00 0.00 0.00 0.00 0.00 0.00 0.00 0.00 0.00 0.00 0.00 0.00 0.00 0.01 0.00 0.01 0.01 0.01 0.02 0.01 0.01 0.01 0.01 0.01 0.01 0.01 0.01 0.02 0.02 0.02 0.06 0.06 0.02 0.02 0.03 0.04 0.07 0.10 0.10 0.15 0.18 0.19 0.23 0.29 0.32 0.29 0.24 0.19 0.19 0.18 0.17 0.19 0.21 0.36 0.31 0.26 0.27 0.22 0.18 0.16 0.16 0.11 0.08 0.08 0.08 0.08 0.07 0.09 0.11 0.10 0.06 0.05
0.04 0.03 0.03 0.02 0.02 0.01 0.01 0.01 0.01 0.00 0.00 0.00 0.00 0.00 0.00 0.00 0.00 0.00 0.00 0.00 0.00 0.00 0.00 0.00 0.00 0.00 0.00 0.00 0.01 0.01 0.01 0.02 0.02 0.03 0.01 0.01 0.01 0.01 0.00 0.01 0.02 0.04 0.03 0.04 0.05 0.04 0.06 0.10 0.13 0.09 0.11 0.08 0.10 0.16 0.22 0.21 0.23 0.29 0.34 0.33 0.28 0.22 0.21 0.16 0.18 0.23 0.26 0.22 0.18 0.19 0.23 0.21 0.17 0.14 0.13 0.10 0.07 0.06 0.06 0.07 0.07 0.08 0.10 0.08 0.04
0.04 0.04 0.03 0.02 0.02 0.02 0.01 0.01 0.01 0.00 0.00 0.00 0.00 0.00 0.00 0.00 0.00 0.00 0.00 0.00 0.00 0.00 0.00 0.00 0.00 0.00 0.00 0.00 0.00 0.00 0.00 0.00 0.01 0.01 0.01 0.02 0.03 0.04 0.04 0.08 0.11 0.13 0.10 0.11 0.05 0.05 0.14 0.08 0.05 0.15 0.07 0.08 0.08 0.10 0.14 0.22 0.27 0.23 0.27 0.33 0.36 0.31 0.25 0.22 0.15 0.16 0.22 0.26 0.28 0.31 0.31 0.20 0.21 0.15 0.10 0.09 0.08 0.05 0.05 0.04 0.05 0.06 0.07 0.08 0.07
0.04 0.03 0.03 0.02 0.02 0.02 0.01 0.01 0.01 0.00 0.00 0.00 0.00 0.00 0.00 0.00 0.00 0.00 0.00 0.00 0.00 0.00 0.00 0.00 0.00 0.00 0.00 0.00 0.00 0.00 0.00 0.00 0.00 0.00 0.01 0.02 0.03 0.06 0.05 0.06 0.07 0.11 0.04 0.09 0.08 0.11 0.13 0.05 0.09 0.13 0.15 0.09 0.11 0.09 0.10 0.11 0.18 0.28 0.30 0.30 0.32 0.37 0.32 0.26 0.21 0.15 0.17 0.21 0.33 0.28 0.36 0.37 0.25 0.20 0.15 0.07 0.04 0.05 0.05 0.04 0.04 0.03 0.04 0.05 0.08
0.03 0.03 0.03 0.03 0.02 0.02 0.01 0.01 0.01 0.00 0.00 0.00 0.00 0.00 0.00 0.00 0.00 0.00 0.00 0.00 0.00 0.00 0.00 0.00 0.00 0.00 0.00 0.00 0.00 0.00 0.00 0.01 0.01 0.00 0.00 0.00 0.00 0.01 0.01 0.05 0.05 0.10 0.14 0.08 0.05 0.08 0.09 0.13 0.13 0.06 0.07 0.05 0.12 0.09 0.10 0.13 0.11 0.16 0.24 0.36 0.37 0.34 0.34 0.29 0.27 0.21 0.17 0.17 0.25 0.32 0.26 0.24 0.21 0.14 0.07 0.11 0.08 0.04 0.03 0.04 0.04 0.03 0.02 0.03 0.06
0.02 0.03 0.02 0.02 0.02 0.01 0.01 0.01 0.00 0.00 0.00 0.00 0.00 0.00 0.00 0.00 0.00 0.00 0.00 0.00 0.00 0.00 0.00 0.00 0.00 0.00 0.01 0.01 0.01 0.02 0.02 0.01 0.01 0.00 0.00 0.00 0.00 0.00 0.00 0.00 0.00 0.01 0.04 0.08 0.08 0.13 0.12 0.13 0.09 0.07 0.08 0.11 0.10 0.08 0.08 0.10 0.14 0.24 0.18 0.23 0.37 0.41 0.39 0.38 0.28 0.22 0.19 0.20 0.22 0.25 0.26 0.22 0.18 0.12 0.13 0.07 0.07 0.07 0.07 0.04 0.05 0.05 0.03 0.02 0.03
0.02 0.02 0.02 0.02 0.01 0.01 0.01 0.00 0.00 0.00 0.00 0.00 0.00 0.00 0.00 0.00 0.00 0.00 0.00 0.00 0.00 0.00 0.00 0.00 0.02 0.01 0.02 0.02 0.02 0.03 0.02 0.01 0.01 0.00 0.00 0.01 0.01 0.01 0.00 0.01 0.00 0.01 0.01 0.01 0.01 0.04 0.10 0.12 0.18 0.15 0.10 0.08 0.07 0.06 0.09 0.08 0.13 0.09 0.12 0.18 0.29 0.42 0.42 0.47 0.34 0.20 0.22 0.23 0.21 0.24 0.24 0.20 0.18 0.15 0.13 0.13 0.14 0.07 0.05 0.04 0.03 0.03 0.05 0.05 0.03
0.02 0.02 0.02 0.01 0.01 0.01 0.00 0.00 0.00 0.00 0.00 0.00 0.00 0.00 0.00 0.00 0.01 0.00 0.00 0.00 0.00 0.00 0.00 0.01 0.04 0.03 0.04 0.02 0.03 0.02 0.01 0.01 0.01 0.01 0.01 0.01 0.00 0.01 0.00 0.00 0.00 0.00 0.00 0.00 0.03 0.03 0.02 0.03 0.04 0.09 0.12 0.14 0.14 0.13 0.10 0.08 0.08 0.08 0.13 0.12 0.18 0.22 0.27 0.39 0.44 0.35 0.22 0.19 0.16 0.20 0.25 0.26 0.23 0.21 0.13 0.08 0.15 0.15 0.07 0.03 0.06 0.04 0.02 0.03 0.04
0.01 0.01 0.01 0.01 0.00 0.00 0.00 0.00 0.00 0.00 0.00 0.00 0.00 0.00 0.00 0.00 0.00 0.00 0.00 0.00 0.00 0.01 0.08 0.02 0.02 0.02 0.02 0.02 0.02 0.01 0.01 0.00 0.00 0.01 0.01 0.01 0.01 0.01 0.01 0.01 0.01 0.01 0.01 0.00 0.00 0.01 0.02 0.01 0.02 0.02 0.03 0.05 0.11 0.17 0.17 0.13 0.12 0.11 0.10 0.11 0.14 0.19 0.22 0.29 0.35 0.37 0.29 0.21 0.14 0.15 0.20 0.26 0.30 0.30 0.26 0.19 0.12 0.09 0.10 0.06 0.03 0.03 0.04 0.04 0.02
0.01 0.01 0.00 0.00 0.00 0.00 0.00 0.00 0.00 0.00 0.00 0.00 0.00 0.00 0.01 0.01 0.01 0.00 0.00 0.00 0.01 0.02 0.02 0.02 0.01 0.05 0.02 0.01 0.00 0.00 0.00 0.00 0.00 0.00 0.00 0.01 0.01 0.01 0.01 0.01 0.01 0.01 0.01 0.01 0.01 0.01 0.01 0.01 0.00 0.00 0.01 0.01 0.02 0.04 0.09 0.18 0.17 0.15 0.15 0.15 0.17 0.17 0.17 0.19 0.25 0.29 0.31 0.29 0.20 0.17 0.15 0.16 0.22 0.29 0.26 0.17 0.14 0.10 0.06 0.04 0.04 0.04 0.03 0.04 0.03
0.01 0.00 0.00 0.00 0.00 0.00 0.00 0.00 0.00 0.00 0.00 0.00 0.00 0.01 0.01 0.01 0.01 0.01 0.00 0.04 0.03 0.04 0.02 0.01 0.01 0.01 0.01 0.01 0.01 0.01 0.00 0.01 0.00 0.00 0.00 0.00 0.00 0.00 0.01 0.01 0.01 0.01 0.01 0.01 0.01 0.01 0.01 0.02 0.01 0.01 0.01 0.01 0.00 0.01 0.01 0.03 0.07 0.13 0.20 0.20 0.21 0.20 0.19 0.20 0.23 0.24 0.25 0.27 0.27 0.19 0.15 0.11 0.12 0.16 0.20 0.20 0.16 0.11 0.07 0.05 0.02 0.02 0.04 0.06 0.03
0.00 0.00 0.00 0.00 0.00 0.00 0.00 0.00 0.00 0.00 0.00 0.00 0.01 0.01 0.01 0.00 0.01 0.01 0.01 0.01 0.03 0.02 0.02 0.02 0.01 0.01 0.01 0.01 0.01 0.01 0.01 0.01 0.00 0.01 0.01 0.01 0.01 0.01 0.01 0.02 0.01 0.02 0.01 0.02 0.02 0.02 0.02 0.08 0.03 0.04 0.03 0.02 0.01 0.01 0.01 0.01 0.02 0.04 0.08 0.16 0.20 0.20 0.22 0.25 0.26 0.26 0.27 0.25 0.25 0.22 0.18 0.14 0.11 0.10 0.12 0.16 0.22 0.20 0.12 0.10 0.04 0.02 0.02 0.02 0.05
0.00 0.00 0.00 0.00 0.00 0.00 0.00 0.00 0.00 0.00 0.00 0.00 0.01 0.01 0.01 0.01 0.01 0.01 0.01 0.02 0.03 0.02 0.02 0.01 0.01 0.02 0.02 0.02 0.02 0.01 0.01 0.01 0.01 0.01 0.01 0.01 0.03 0.02 0.04 0.03 0.03 0.03 0.02 0.02 0.01 0.02 0.02 0.03 0.04 0.04 0.03 0.03 0.04 0.04 0.03 0.03 0.03 0.02 0.02 0.04 0.08 0.13 0.15 0.19 0.23 0.24 0.24 0.25 0.25 0.25 0.24 0.23 0.16 0.10 0.08 0.09 0.14 0.20 0.22 0.17 0.10 0.04 0.02 0.02 0.02
0.00 0.00 0.00 0.00 0.00 0.00 0.01 0.01 0.01 0.00 0.00 0.00 0.01 0.01 0.01 0.07 0.06 0.01 0.01 0.02 0.02 0.02 0.01 0.01 0.01 0.01 0.01 0.01 0.01 0.01 0.01 0.01 0.02 0.05 0.03 0.04 0.04 0.04 0.03 0.03 0.03 0.02 0.02 0.01 0.01 0.01 0.01 0.02 0.03 0.04 0.05 0.05 0.06 0.07 0.08 0.07 0.07 0.07 0.06 0.03 0.03 0.04 0.09 0.14 0.18 0.20 0.24 0.26 0.28 0.28 0.24 0.21 0.20 0.15 0.09 0.09 0.10 0.14 0.15 0.14 0.14 0.13 0.06 0.04 0.02
0.00 0.00 0.00 0.00 0.00 0.00 0.00 0.00 0.00 0.00 0.00 0.01 0.01 0.02 0.03 0.04 0.01 0.01 0.02 0.03 0.02 0.01 0.01 0.01 0.02 0.02 0.02 0.02 0.01 0.02 0.02 0.03 0.04 0.03 0.04 0.03 0.03 0.04 0.05 0.06 0.03 0.02 0.02 0.02 0.01 0.02 0.06 0.01 0.02 0.02 0.03 0.04 0.05 0.05 0.06 0.08 0.11 0.13 0.14 0.11 0.07 0.04 0.03 0.06 0.10 0.12 0.16 0.19 0.24 0.26 0.27 0.24 0.17 0.16 0.15 0.13 0.11 0.12 0.12 0.11 0.11 0.18 0.15 0.08 0.05
0.00 0.00 0.00 0.00 0.00 0.00 0.00 0.00 0.00 0.00 0.01 0.02 0.03 0.02 0.01 0.01 0.01 0.02 0.03 0.01 0.01 0.01 0.01 0.02 0.02 0.02 0.03 0.02 0.02 0.03 0.06 0.09 0.05 0.04 0.03 0.05 0.05 0.04 0.02 0.03 0.01 0.01 0.01 0.01 0.01 0.01 0.07 0.05 0.02 0.01 0.01 0.02 0.03 0.03 0.04 0.04 0.05 0.08 0.11 0.14 0.15 0.11 0.07 0.06 0.06 0.08 0.10 0.12 0.17 0.24 0.29 0.28 0.21 0.14 0.13 0.16 0.16 0.15 0.15 0.14 0.14 0.15 0.17 0.15 0.10
0.00 0.00 0.00 0.00 0.00 0.01 0.00 0.00 0.00 0.01 0.02 0.03 0.02 0.01 0.01 0.01 0.01 0.02 0.02 0.02 0.02 0.02 0.02 0.02 0.05 0.03 0.02 0.03 0.05 0.06 0.04 0.04 0.03 0.12 0.02 0.03 0.02 0.01 0.01 0.01 0.01 0.01 0.01 0.01 0.00 0.00 0.00 0.02 0.03 0.03 0.09 0.01 0.01 0.02 0.03 0.03 0.04 0.04 0.04 0.05 0.06 0.09 0.14 0.13 0.09 0.08 0.09 0.09 0.11 0.16 0.24 0.28 0.23 0.21 0.17 0.14 0.16 0.18 0.18 0.19 0.18 0.18 0.15 0.19 0.15
0.00 0.00 0.00 0.00 0.00 0.00 0.00 0.00 0.01 0.02 0.03 0.03 0.01 0.01 0.00 0.01 0.02 0.02 0.02 0.02 0.02 0.02 0.02 0.03 0.02 0.03 0.04 0.05 0.04 0.02 0.03 0.04 0.06 0.05 0.03 0.09 0.04 0.01 0.01 0.01 0.01 0.01 0.01 0.01 0.03 0.01 0.01 0.01 0.00 0.00 0.00 0.00 0.00 0.00 0.01 0.01 0.02 0.03 0.03 0.02 0.02 0.02 0.04 0.10 0.12 0.10 0.08 0.08 0.11 0.12 0.14 0.19 0.20 0.21 0.20 0.17 0.16 0.19 0.22 0.21 0.20 0.18 0.18 0.18 0.17
0.00 0.00 0.00 0.00 0.00 0.00 0.00 0.00 0.01 0.03 0.03 0.01 0.01 0.00 0.01 0.02 0.03 0.02 0.02 0.01 0.02 0.02 0.03 0.06 0.04 0.04 0.03 0.02 0.03 0.05 0.07 0.04 0.05 0.02 0.02 0.03 0.01 0.00 0.01 0.01 0.00 0.00 0.00 0.00 0.02 0.00 0.01 0.01 0.01 0.00 0.00 0.00 0.00 0.01 0.01 0.01 0.02 0.02 0.02 0.02 0.02 0.02 0.02 0.02 0.02 0.04 0.09 0.10 0.11 0.12 0.11 0.12 0.13 0.16 0.19 0.20 0.19 0.19 0.19 0.21 0.22 0.23 0.22 0.20 0.23
0.00 0.00 0.00 0.00 0.01 0.00 0.00 0.01 0.03 0.02 0.01 0.01 0.01 0.01 0.03 0.03 0.02 0.02 0.01 0.02 0.03 0.06 0.03 0.02 0.03 0.03 0.02 0.04 0.05 0.05 0.03 0.07 0.02 0.01 0.02 0.02 0.03 0.01 0.01 0.00 0.00 0.00 0.02 0.01 0.02 0.01 0.01 0.01 0.01 0.01 0.01 0.00 0.00 0.00 0.00 0.00 0.00 0.01 0.01 0.02 0.02 0.02 0.02 0.01 0.01 0.01 0.01 0.04 0.09 0.12 0.10 0.09 0.09 0.16 0.19 0.17 0.19 0.20 0.20 0.21 0.21 0.22 0.27 0.24 0.23
0.00 0.00 0.00 0.01 0.01 0.01 0.02 0.03 0.03 0.01 0.01 0.01 0.01 0.02 0.04 0.03 0.02 0.01 0.02 0.03 0.03 0.05 0.03 0.03 0.02 0.01 0.02 0.03 0.03 0.02 0.02 0.02 0.03 0.02 0.03 0.02 0.01 0.01 0.01 0.03 0.01 0.01 0.01 0.01 0.02 0.02 0.02 0.02 0.03 0.04 0.02 0.03 0.02 0.08 0.02 0.00 0.01 0.01 0.01 0.01 0.02 0.02 0.02 0.01 0.01 0.01 0.00 0.01 0.01 0.04 0.06 0.07 0.08 0.16 0.18 0.20 0.18 0.20 0.21 0.24 0.24 0.22 0.21 0.21 0.20
0.00 0.00 0.00 0.01 0.01 0.01 0.02 0.02 0.02 0.01 0.01 0.01 0.01 0.02 0.03 0.02 0.02 0.03 0.04 0.03 0.03 0.03 0.02 0.01 0.01 0.02 0.02 0.02 0.03 0.03 0.03 0.04 0.02 0.02 0.04 0.02 0.01 0.02 0.02 0.07 0.04 0.03 0.02 0.02 0.02 0.02 0.02 0.03 0.04 0.04 0.13 0.07 0.03 0.03 0.02 0.02 0.02 0.02 0.02 0.01 0.02 0.02 0.02 0.02 0.01 0.01 0.01 0.00 0.01 0.01 0.02 0.02 0.04 0.12 0.14 0.15 0.15 0.18 0.20 0.28 0.21 0.22 0.20 0.16 0.13
0.00 0.01 0.01 0.01 0.01 0.02 0.03 0.02 0.01 0.01 0.01 0.01 0.02 0.03 0.03 0.03 0.04 0.04 0.03 0.02 0.01 0.01 0.01 0.01 0.02 0.02 0.03 0.02 0.03 0.03 0.03 0.04 0.02 0.02 0.02 0.02 0.02 0.03 0.03 0.03 0.03 0.03 0.03 0.03 0.03 0.03 0.03 0.03 0.03 0.04 0.04 0.05 0.06 0.05 0.09 0.09 0.03 0.05 0.03 0.03 0.02 0.02 0.02 0.03 0.03 0.03 0.03 0.02 0.01 0.01 0.01 0.01 0.02 0.04 0.07 0.18 0.15 0.14 0.19 0.20 0.19 0.18 0.17 0.15 0.13
0.01 0.01 0.01 0.01 0.03 0.03 0.02 0.02 0.02 0.01 0.01 0.02 0.04 0.04 0.05 0.05 0.03 0.02 0.02 0.01 0.01 0.01 0.01 0.02 0.02 0.02 0.02 0.03 0.03 0.03 0.02 0.02 0.02 0.02 0.02 0.02 0.02 0.02 0.03 0.03 0.03 0.03 0.03 0.03 0.03 0.03 0.03 0.03 0.04 0.04 0.04 0.04 0.03 0.04 0.04 0.04 0.03 0.03 0.03 0.04 0.04 0.05 0.09 0.07 0.06 0.03 0.03 0.03 0.03 0.02 0.02 0.02 0.03 0.04 0.04 0.04 0.06 0.10 0.13 0.13 0.12 0.13 0.15 0.16 0.16
0.01 0.01 0.02 0.03 0.03 0.02 0.02 0.03 0.02 0.02 0.02 0.03 0.04 0.05 0.04 0.03 0.02 0.01 0.01 0.01 0.01 0.02 0.02 0.03 0.02 0.02 0.03 0.03 0.02 0.02 0.01 0.01 0.01 0.02 0.02 0.03 0.03 0.03 0.04 0.03 0.03 0.04 0.03 0.03 0.03 0.04 0.04 0.05 0.05 0.05 0.05 0.05 0.04 0.04 0.03 0.03 0.03 0.03 0.03 0.03 0.03 0.03 0.04 0.04 0.05 0.05 0.05 0.07 0.06 0.05 0.04 0.05 0.05 0.06 0.05 0.05 0.05 0.04 0.07 0.11 0.10 0.12 0.11 0.12 0.18
0.01 0.03 0.04 0.03 0.02 0.02 0.04 0.03 0.02 0.03 0.03 0.04 0.04 0.03 0.02 0.02 0.01 0.01 0.01 0.01 0.02 0.02 0.03 0.03 0.02 0.03 0.02 0.02 0.01 0.01 0.01 0.02 0.02 0.03 0.03 0.04 0.04 0.04 0.04 0.04 0.04 0.04 0.05 0.05 0.05 0.05 0.05 0.04 0.04 0.04 0.04 0.03 0.03 0.03 0.03 0.03 0.03 0.04 0.04 0.02 0.02 0.02 0.02 0.03 0.04 0.04 0.05 0.05 0.06 0.07 0.08 0.14 0.08 0.08 0.08 0.06 0.07 0.08 0.09 0.08 0.07 0.07 0.09 0.12 0.17
0.02 0.03 0.04 0.02 0.02 0.03 0.03 0.03 0.03 0.03 0.04 0.04 0.02 0.02 0.01 0.01 0.01 0.01 0.01 0.01 0.01 0.01 0.01 0.01 0.02 0.02 0.02 0.01 0.01 0.02 0.02 0.03 0.03 0.03 0.04 0.05 0.05 0.05 0.06 0.06 0.06 0.05 0.05 0.05 0.05 0.05 0.04 0.04 0.04 0.04 0.03 0.03 0.04 0.03 0.03 0.02 0.02 0.02 0.03 0.03 0.02 0.02 0.02 0.02 0.02 0.02 0.03 0.04 0.05 0.06 0.08 0.08 0.08 0.09 0.11 0.10 0.09 0.11 0.08 0.10 0.09 0.11 0.12 0.13 0.15
0.04 0.03 0.07 0.02 0.03 0.03 0.04 0.04 0.03 0.04 0.05 0.03 0.02 0.02 0.02 0.01 0.01 0.01 0.01 0.01 0.01 0.01 0.01 0.01 0.02 0.02 0.02 0.02 0.02 0.03 0.03 0.03 0.03 0.04 0.05 0.05 0.06 0.07 0.07 0.07 0.07 0.07 0.06 0.05 0.05 0.05 0.06 0.05 0.05 0.05 0.05 0.06 0.06 0.06 0.05 0.05 0.03 0.02 0.02 0.02 0.03 0.02 0.02 0.02 0.01 0.02 0.02 0.02 0.03 0.04 0.06 0.06 0.06 0.07 0.09 0.11 0.09 0.10 0.17 0.12 0.09 0.10 0.14 0.16 0.18
0.04 0.03 0.04 0.03 0.03 0.04 0.05 0.03 0.05 0.06 0.04 0.03 0.03 0.02 0.02 0.01 0.01 0.01 0.01 0.01 0.01 0.01 0.02 0.02 0.01 0.02 0.02 0.02 0.03 0.03 0.03 0.03 0.04 0.05 0.06 0.08 0.08 0.08 0.09 0.09 0.09 0.08 0.07 0.06 0.06 0.06 0.08 0.07 0.06 0.05 0.06 0.07 0.06 0.06 0.05 0.05 0.05 0.05 0.04 0.04 0.05 0.04 0.02 0.02 0.02 0.02 0.02 0.02 0.03 0.03 0.03 0.04 0.06 0.07 0.08 0.11 0.12 0.14 0.10 0.09 0.14 0.13 0.12 0.17 0.15
0.04 0.05 0.05 0.04 0.04 0.04 0.04 0.06 0.07 0.05 0.04 0.03 0.03 0.02 0.02 0.01 0.01 0.01 0.01 0.01 0.01 0.02 0.01 0.01 0.02 0.02 0.03 0.03 0.03 0.04 0.04 0.04 0.06 0.07 0.08 0.09 0.10 0.10 0.11 0.10 0.10 0.09 0.09 0.08 0.09 0.10 0.09 0.09 0.09 0.10 0.09 0.09 0.09 0.09 0.07 0.07 0.11 0.16 0.13 0.13 0.11 0.05 0.03 0.03 0.03 0.03 0.03 0.02 0.03 0.03 0.03 0.03 0.04 0.05 0.08 0.09 0.10 0.10 0.12 0.12 0.09 0.10 0.15 0.15 0.17
0.07 0.06 0.04 0.04 0.05 0.05 0.06 0.08 0.06 0.05 0.04 0.04 0.03 0.02 0.02 0.01 0.01 0.01 0.01 0.01 0.02 0.01 0.01 0.02 0.03 0.03 0.03 0.04 0.04 0.04 0.06 0.07 0.09 0.10 0.10 0.10 0.11 0.11 0.11 0.11 0.10 0.09 0.08 0.09 0.09 0.09 0.09 0.09 0.10 0.10 0.09 0.08 0.07 0.07 0.10 0.13 0.15 0.15 0.20 0.27 0.21 0.13 0.07 0.06 0.04 0.03 0.03 0.03 0.03 0.03 0.03 0.04 0.04 0.05 0.06 0.07 0.08 0.08 0.09 0.11 0.11 0.10 0.10 0.11 0.15
0.07 0.05 0.05 0.05 0.05 0.06 0.08 0.07 0.05 0.05 0.04 0.04 0.03 0.02 0.02 0.02 0.01 0.01 0.01 0.01 0.01 0.01 0.03 0.03 0.03 0.04 0.04 0.04 0.05 0.07 0.08 0.09 0.09 0.10 0.11 0.11 0.11 0.10 0.10 0.10 0.10 0.09 0.10 0.11 0.11 0.13 0.13 0.13 0.14 0.14 0.11 0.11 0.09 0.08 0.09 0.11 0.14 0.20 0.23 0.40 0.39 0.23 0.12 0.09 0.07 0.05 0.05 0.05 0.05 0.05 0.05 0.05 0.05 0.05 0.07 0.08 0.08 0.09 0.09 0.09 0.09 0.10 0.12 0.11 0.10
0.07 0.07 0.07 0.05 0.05 0.08 0.08 0.06 0.04 0.04 0.03 0.03 0.02 0.02 0.02 0.01 0.01 0.01 0.01 0.01 0.02 0.03 0.03 0.03 0.03 0.03 0.04 0.05 0.07 0.08 0.09 0.09 0.09 0.10 0.11 0.11 0.11 0.11 0.12 0.13 0.14 0.15 0.14 0.15 0.14 0.15 0.17 0.18 0.18 0.18 0.17 0.13 0.11 0.09 0.10 0.13 0.19 0.21 0.27 0.34 0.34 0.24 0.16 0.10 0.07 0.06 0.07 0.07 0.07 0.08 0.08 0.07 0.06 0.07 0.08 0.09 0.10 0.10 0.10 0.12 0.13 0.12 0.12 0.11 0.11
0.09 0.08 0.06 0.06 0.10 0.09 0.07 0.05 0.04 0.04 0.03 0.02 0.02 0.02 0.01 0.01 0.02 0.02 0.01 0.02 0.03 0.03 0.03 0.03 0.04 0.04 0.05 0.06 0.08 0.08 0.09 0.09 0.09 0.10 0.11 0.11 0.12 0.14 0.14 0.16 0.18 0.19 0.20 0.20 0.23 0.21 0.20 0.21 0.22 0.23 0.24 0.20 0.16 0.13 0.14 0.17 0.23 0.31 0.40 0.34 0.34 0.37 0.24 0.11 0.08 0.08 0.07 0.07 0.09 0.10 0.10 0.09 0.08 0.08 0.09 0.08 0.08 0.10 0.11 0.13 0.15 0.15 0.13 0.11 0.10
0.09 0.07 0.07 0.09 0.11 0.08 0.06 0.04 0.03 0.03 0.03 0.02 0.02 0.02 0.02 0.02 0.02 0.01 0.02 0.03 0.02 0.03 0.03 0.04 0.05 0.05 0.06 0.07 0.08 0.09 0.09 0.08 0.09 0.10 0.11 0.12 0.12 0.13 0.15 0.15 0.17 0.17 0.20 0.21 0.21 0.26 0.22 0.20 0.18 0.22 0.26 0.23 0.19 0.20 0.25 0.27 0.32 0.45 0.51 0.76 0.34 0.26 0.17 0.10 0.08 0.08 0.09 0.10 0.17 0.27 0.14 0.15 0.15 0.13 0.10 0.10 0.12 0.12 0.14 0.15 0.18 0.17 0.14 0.11 0.09
0.05 0.05 0.08 0.09 0.08 0.06 0.04 0.03 0.03 0.03 0.03 0.03 0.02 0.02 0.03 0.02 0.02 0.02 0.02 0.02 0.03 0.04 0.04 0.05 0.06 0.06 0.07 0.07 0.08 0.10 0.10 0.10 0.10 0.11 0.12 0.13 0.15 0.15 0.15 0.15 0.20 0.20 0.20 0.18 0.14 0.13 0.12 0.12 0.12 0.12 0.14 0.11 0.09 0.11 0.16 0.30 0.45 0.61 0.79 0.54 0.41 0.34 0.24 0.16 0.10 0.17 0.13 0.12 0.14 0.16 0.17 0.14 0.15 0.14 0.11 0.12 0.16 0.18 0.21 0.18 0.17 0.16 0.15 0.15 0.13
0.04 0.05 0.09 0.09 0.06 0.04 0.03 0.02 0.03 0.03 0.03 0.02 0.02 0.03 0.03 0.02 0.03 0.02 0.02 0.03 0.04 0.05 0.05 0.06 0.06 0.07 0.07 0.08 0.09 0.10 0.12 0.12 0.12 0.13 0.14 0.14 0.15 0.15 0.16 0.17 0.20 0.17 0.13 0.09 0.08 0.08 0.08 0.10 0.10 0.08 0.07 0.07 0.04 0.04 0.08 0.13 0.21 0.40 0.62 0.53 0.42 0.35 0.25 0.19 0.16 0.16 0.14 0.14 0.14 0.13 0.15 0.16 0.16 0.13 0.12 0.14 0.19 0.27 0.32 0.24 0.18 0.16 0.15 0.15 0.13
0.04 0.09 0.09 0.06 0.04 0.03 0.02 0.02 0.03 0.04 0.04 0.03 0.03 0.03 0.03 0.03 0.02 0.03 0.03 0.04 0.05 0.05 0.06 0.07 0.08 0.07 0.07 0.08 0.09 0.10 0.12 0.13 0.13 0.13 0.14 0.16 0.17 0.19 0.15 0.13 0.13 0.12 0.10 0.08 0.07 0.07 0.05 0.04 0.06 0.07 0.06 0.10 0.11 0.10 0.07 0.11 0.16 0.22 0.36 0.32 0.34 0.35 0.28 0.23 0.22 0.21 0.21 0.21 0.18 0.17 0.17 0.18 0.16 0.12 0.10 0.15 0.22 0.33 0.37 0.27 0.18 0.17 0.16 0.13 0.09
0.07 0.07 0.05 0.03 0.02 0.02 0.03 0.04 0.05 0.06 0.04 0.03 0.03 0.03 0.03 0.03 0.03 0.04 0.05 0.06 0.06 0.06 0.06 0.07 0.07 0.07 0.07 0.08 0.08 0.11 0.13 0.14 0.14 0.14 0.13 0.15 0.14 0.12 0.11 0.10 0.08 0.08 0.08 0.06 0.05 0.06 0.05 0.04 0.05 0.07 0.07 0.13 0.13 0.08 0.11 0.17 0.22 0.23 0.22 0.25 0.29 0.30 0.29 0.22 0.23 0.29 0.30 0.25 0.20 0.17 0.19 0.18 0.23 0.22 0.19 0.18 0.21 0.41 0.35 0.28 0.17 0.16 0.16 0.12 0.09
0.06 0.05 0.03 0.02 0.02 0.03 0.04 0.04 0.06 0.05 0.04 0.03 0.04 0.04 0.04 0.03 0.04 0.05 0.06 0.06 0.06 0.06 0.06 0.07 0.06 0.06 0.06 0.07 0.08 0.11 0.14 0.13 0.14 0.15 0.14 0.11 0.10 0.10 0.08 0.07 0.07 0.06 0.05 0.05 0.04 0.04 0.05 0.06 0.09 0.09 0.17 0.19 0.23 0.24 0.15 0.14 0.12 0.10 0.14 0.20 0.18 0.18 0.19 0.21 0.25 0.27 0.24 0.21 0.19 0.17 0.18 0.16 0.18 0.20 0.24 0.28 0.33 0.40 0.39 0.34 0.25 0.16 0.09 0.07 0.07
0.04 0.03 0.02 0.03 0.03 0.04 0.03 0.05 0.06 0.06 0.05 0.04 0.04 0.05 0.04 0.05 0.06 0.07 0.06 0.05 0.06 0.06 0.07 0.06 0.05 0.05 0.06 0.07 0.09 0.11 0.13 0.14 0.11 0.09 0.09 0.09 0.08 0.08 0.07 0.08 0.08 0.09 0.09 0.08 0.07 0.07 0.08 0.10 0.17 0.13 0.16 0.12 0.10 0.11 0.11 0.08 0.08 0.08 0.10 0.14 0.14 0.13 0.15 0.18 0.22 0.21 0.21 0.21 0.20 0.18 0.17 0.16 0.20 0.24 0.26 0.29 0.36 0.36 0.36 0.34 0.30 0.17 0.12 0.09 0.12
0.04 0.03 0.03 0.03 0.05 0.04 0.04 0.06 0.06 0.06 0.05 0.05 0.05 0.06 0.06 0.06 0.07 0.06 0.05 0.06 0.06 0.07 0.06 0.05 0.05 0.05 0.06 0.08 0.10 0.12 0.14 0.11 0.09 0.08 0.09 0.09 0.08 0.07 0.06 0.08 0.11 0.12 0.11 0.09 0.07 0.11 0.12 0.15 0.10 0.07 0.07 0.09 0.09 0.10 0.08 0.08 0.06 0.06 0.08 0.12 0.11 0.12 0.12 0.15 0.18 0.19 0.17 0.15 0.15 0.18 0.19 0.22 0.27 0.32 0.41 0.42 0.54 0.46 0.41 0.34 0.41 0.32 0.21 0.21 0.21
0.03 0.03 0.03 0.04 0.04 0.04 0.05 0.06 0.06 0.05 0.05 0.05 0.06 0.07 0.08 0.08 0.07 0.05 0.06 0.06 0.06 0.05 0.05 0.04 0.04 0.05 0.06 0.07 0.09 0.10 0.09 0.10 0.11 0.10 0.09 0.09 0.07 0.06 0.05 0.06 0.10 0.11 0.10 0.09 0.07 0.11 0.10 0.09 0.09 0.09 0.10 0.09 0.09 0.10 0.08 0.08 0.07 0.07 0.09 0.14 0.12 0.11 0.11 0.13 0.14 0.13 0.12 0.12 0.12 0.13 0.16 0.21 0.26 0.31 0.44 0.44 0.46 0.45 0.40 0.46 0.51 0.50 0.51 0.44 0.29
0.04 0.04 0.03 0.04 0.04 0.05 0.06 0.06 0.05 0.05 0.06 0.06 0.07 0.09 0.09 0.09 0.07 0.06 0.07 0.07 0.06 0.05 0.05 0.04 0.04 0.04 0.05 0.05 0.06 0.06 0.07 0.07 0.05 0.06 0.08 0.07 0.05 0.05 0.05 0.05 0.07 0.09 0.10 0.10 0.10 0.09 0.09 0.11 0.13 0.16 0.14 0.09 0.09 0.11 0.09 0.09 0.10 0.11 0.13 0.19 0.14 0.11 0.10 0.12 0.14 0.12 0.10 0.09 0.09 0.11 0.12 0.13 0.17 0.22 0.28 0.32 0.47 0.38 0.44 0.47 0.44 0.44 0.46 0.44 0.45
0.04 0.03 0.03 0.04 0.04 0.05 0.07 0.06 0.05 0.05 0.06 0.07 0.07 0.08 0.11 0.10 0.07 0.07 0.07 0.07 0.06 0.05 0.04 0.04 0.04 0.04 0.04 0.04 0.04 0.03 0.04 0.05 0.04 0.05 0.06 0.05 0.05 0.05 0.06 0.07 0.09 0.10 0.10 0.12 0.12 0.10 0.12 0.15 0.19 0.19 0.19 0.13 0.13 0.12 0.11 0.11 0.13 0.13 0.13 0.16 0.12 0.11 0.11 0.11 0.11 0.10 0.09 0.09 0.09 0.10 0.11 0.13 0.15 0.18 0.23 0.40 0.46 0.27 0.26 0.36 0.41 0.43 0.46 0.43 0.40
0.04 0.03 0.04 0.05 0.05 0.07 0.08 0.06 0.06 0.06 0.07 0.08 0.08 0.08 0.09 0.08 0.08 0.07 0.07 0.07 0.06 0.05 0.04 0.03 0.03 0.03 0.03 0.03 0.03 0.03 0.03 0.04 0.03 0.03 0.04 0.04 0.04 0.05 0.07 0.09 0.12 0.13 0.13 0.13 0.13 0.15 0.18 0.22 0.25 0.18 0.17 0.13 0.13 0.14 0.12 0.12 0.11 0.12 0.13 0.14 0.13 0.11 0.14 0.15 0.13 0.12 0.13 0.13 0.15 0.17 0.18 0.19 0.18 0.19 0.28 0.31 0.24 0.29 0.34 0.37 0.33 0.34 0.32 0.36 0.34
0.03 0.03 0.04 0.05 0.06 0.08 0.08 0.07 0.07 0.07 0.08 0.08 0.08 0.08 0.08 0.08 0.08 0.08 0.07 0.07 0.06 0.05 0.04 0.03 0.03 0.03 0.03 0.03 0.03 0.03 0.03 0.03 0.04 0.05 0.05 0.04 0.02 0.04 0.07 0.10 0.13 0.20 0.25 0.24 0.22 0.25 0.30 0.34 0.35 0.25 0.19 0.11 0.14 0.17 0.16 0.16 0.14 0.16 0.18 0.20 0.16 0.18 0.16 0.13 0.13 0.11 0.09 0.09 0.12 0.15 0.24 0.30 0.33 0.37 0.28 0.28 0.36 0.41 0.40 0.35 0.27 0.21 0.20 0.24 0.31
0.03 0.05 0.05 0.05 0.07 0.08 0.08 0.07 0.08 0.08 0.08 0.09 0.09 0.08 0.08 0.09 0.09 0.08 0.08 0.08 0.07 0.05 0.03 0.03 0.02 0.02 0.02 0.03 0.04 0.03 0.03 0.03 0.03 0.04 0.08 0.10 0.07 0.06 0.09 0.09 0.07 0.13 0.31 0.57 0.63 0.49 0.48 0.43 0.33 0.33 0.25 0.18 0.17 0.24 0.24 0.18 0.16 0.16 0.21 0.19 0.19 0.18 0.20 0.16 0.10 0.10 0.12 0.14 0.17 0.23 0.23 0.21 0.23 0.24 0.24 0.25 0.27 0.28 0.28 0.30 0.29 0.25 0.23 0.26 0.27
0.04 0.05 0.05 0.05 0.07 0.07 0.08 0.08 0.08 0.08 0.09 0.09 0.09 0.09 0.09 0.08 0.08 0.08 0.08 0.09 0.08 0.07 0.04 0.03 0.02 0.02 0.01 0.02 0.03 0.02 0.02 0.03 0.03 0.03 0.04 0.06 0.10 0.12 0.12 0.15 0.12 0.09 0.15 0.25 0.45 0.65 0.59 0.46 0.41 0.30 0.24 0.32 0.35 0.31 0.21 0.15 0.14 0.15 0.18 0.16 0.15 0.19 0.15 0.12 0.11 0.10 0.11 0.13 0.15 0.17 0.18 0.19 0.21 0.22 0.27 0.29 0.30 0.29 0.27 0.27 0.31 0.29 0.27 0.25 0.23
0.05 0.05 0.06 0.07 0.07 0.07 0.07 0.08 0.09 0.09 0.09 0.09 0.10 0.10 0.09 0.08 0.08 0.08 0.08 0.09 0.09 0.08 0.06 0.03 0.02 0.02 0.02 0.03 0.03 0.03 0.02 0.03 0.04 0.05 0.03 0.05 0.04 0.06 0.09 0.11 0.10 0.09 0.13 0.20 0.24 0.26 0.25 0.29 0.45 0.42 0.18 0.15 0.20 0.18 0.15 0.14 0.14 0.18 0.16 0.18 0.17 0.15 0.12 0.12 0.10 0.10 0.11 0.12 0.14 0.15 0.18 0.18 0.20 0.22 0.24 0.26 0.26 0.27 0.27 0.26 0.29 0.32 0.33 0.34 0.32